Location: Farvagny-le-Petit
(46.7287°N, 7.0724°E)
Time: 00:49:07
(UTC+00:00)

Daily predictions for brighter satellites

Satellite Brightness Start Highest point End
(mag) Time Altitude Azimuth Time Altitude Azimuth Time Altitude Azimuth
SL-16 R/B 3.9 00:21:57 34° NNE 00:21:57 34° NNE 00:26:02 10° N
Cosmos 2082 Rocket 4.4 00:14:51 10° NNW 00:16:43 21° NNW 00:16:43 21° NNW
USA 267 4.2 00:44:10 10° NE 00:50:10 40° NNW 00:50:26 40° NNW
Resurs 1-4 Rocket 4.0 00:51:35 10° NNE 00:54:07 27° NE 00:54:07 27° NE
Cosmos 2278 Rocket 3.7 01:05:11 31° N 01:05:11 31° N 01:08:12 10° NNE
USA 238 DEB 4.5 01:17:23 43° E 01:17:23 43° E 01:22:45 10° NE
USA 238 4.5 01:17:28 43° E 01:17:28 43° E 01:22:51 10° NE
Lacrosse 5 3.8 01:20:30 25° NNE 01:20:30 25° NNE 01:24:10 10° ENE
Cosmos 1943 Rocket 4.0 01:26:29 23° E 01:26:29 23° E 01:30:18 10° NE
CZ-2D R/B 3.4 01:27:04 10° NNE 01:30:10 37° NNE 01:30:10 37° NNE
ARIANE 5 R/B 4.1 01:28:18 10° NNE 01:32:01 30° ENE 01:32:01 30° ENE
ATLAS 5 CENTAUR R/B 3.7 01:37:32 24° N 01:37:32 24° N 01:40:09 10° NNE
NOSS 3-3 (A) 4.5 01:40:25 10° NW 01:47:52 79° NE 01:56:08 10° SE
Cosmos 2279 Rocket 4.1 01:48:30 10° N 01:53:56 69° N 01:53:56 69° N
BREEZE-M DEB (TANK) 3.7 02:00:02 73° SE 02:00:02 73° SE 02:13:12 10° E
NOSS 3-2 (A) 3.5 02:00:54 70° E 02:00:54 70° E 02:07:03 10° NE
SL-16 R/B 4.0 02:07:03 24° NW 02:07:03 24° NW 02:09:42 10° NNW
NOSS 3-2 (C) 3.8 02:03:49 51° ESE 02:03:56 51° ESE 02:10:12 10° NE
ATLAS 3B R/B 3.4 02:04:49 39° SE 02:05:56 42° ESE 02:12:03 10° NE
Cosmos 2297 4.2 02:11:47 49° NNW 02:11:47 49° NNW 02:16:31 10° NNE
Cosmos 841 Rocket 4.1 02:16:29 49° NNW 02:16:29 49° NNW 02:20:31 10° NNE
IRS-P3 4.5 02:12:13 10° N 02:16:34 55° NNW 02:16:34 55° NNW
BREEZE-M DEB (TANK) 4.0 02:20:27 69° WNW 02:21:15 88° SSW 02:36:31 10° ESE
Cosmos 2369 Rocket 2.5 02:22:09 55° SE 02:22:48 59° ESE 02:28:24 10° NNE
ADEOS II 2.0 02:18:18 10° NNE 02:23:23 83° NE 02:23:23 83° NE
Nadezhda 4 Rocket 4.0 02:27:46 49° SSE 02:29:28 73° E 02:35:35 10° NNE
BREEZE-M DEB (TANK) 4.3 02:26:05 43° SW 02:30:08 68° SSE 02:35:03 10° E
Spot 4 Rocket 3.9 02:25:36 10° NNE 02:30:47 85° ESE 02:30:52 84° SE
Atlas Centaur 2 4.3 02:32:45 18° SSE 02:32:45 18° SSE 02:36:19 10° SE
USA 267 4.4 02:26:23 10° ENE 02:32:18 38° N 02:37:46 12° NW
Cosmos 1869 Rocket 4.3 02:30:48 10° N 02:33:58 45° N 02:33:58 45° N
Resurs 1-4 Rocket 3.5 02:31:52 10° N 02:35:11 26° NW 02:35:11 26° NW
Meteor 1-20 Rocket 4.0 02:33:41 10° NNW 02:38:54 69° WNW 02:38:54 69° WNW
IRIDIUM 104 4.3 02:40:02 69° WNW 02:40:02 69° WNW 02:45:00 10° N
IRS-1D 4.3 02:35:09 10° N 02:39:29 39° NW 02:39:29 39° NW
Unknown 4.4 02:41:22 45° ESE 02:41:22 45° ESE 02:44:45 10° ENE
Unknown 4.4 02:42:56 47° ESE 02:42:56 47° ESE 02:46:22 10° ENE
SL-4 R/B 2.9 02:46:33 38° E 02:46:33 38° E 02:48:58 10° ESE
Unknown 4.0 02:47:55 58° NE 02:47:55 58° NE 02:51:07 10° ENE
CENTAUR R/B 2.6 02:45:29 46° S 02:47:21 70° SE 02:54:20 10° NE
Unknown 4.0 02:48:09 54° NE 02:48:09 54° NE 02:51:15 10° ENE
Cosmos 2278 Rocket 4.2 02:47:02 14° NW 02:47:53 15° NW 02:50:59 10° N
Unknown 4.0 02:49:18 55° ESE 02:49:18 55° ESE 02:53:01 10° ENE
IRIDIUM 114 4.4 02:49:10 58° WNW 02:49:10 58° WNW 02:54:08 10° N
Meteor 1-28 Rocket 3.8 02:50:55 49° N 02:50:55 49° N 02:53:47 10° N
Unknown 4.0 02:50:58 58° ESE 02:50:58 58° ESE 02:54:46 10° ENE
Unknown 3.9 02:51:31 59° ESE 02:51:31 59° ESE 02:55:20 10° ENE
Unknown 3.8 02:54:08 62° SE 02:54:08 62° SE 02:58:03 10° ENE
Unknown 3.7 02:55:50 67° SE 02:55:50 67° SE 02:59:51 10° ENE
Unknown 3.7 02:56:49 66° SE 02:56:49 66° SE 03:00:52 10° ENE
Cosmos 1602 4.2 02:53:37 10° N 02:56:39 51° NNW 02:56:39 51° NNW
Unknown 3.6 02:59:02 71° SSE 02:59:03 71° SE 03:03:11 10° ENE
Unknown 3.6 03:00:31 70° SSE 03:00:35 70° SSE 03:04:44 10° ENE
Unknown 3.6 03:01:08 71° SSE 03:01:14 71° SSE 03:05:22 10° ENE
Cosmos 540 Rocket 4.3 03:01:31 34° WNW 03:01:31 34° WNW 03:06:12 10° N
Unknown 3.6 03:03:36 70° S 03:03:49 72° SSE 03:07:58 10° ENE
Lacrosse 5 3.0 02:59:43 13° NW 03:04:01 41° NNE 03:08:48 10° E
BREEZE-M DEB (TANK) 3.6 03:03:08 43° SSW 03:04:10 53° SSE 03:07:06 10° ENE
Cosmos 1782 3.1 03:06:43 53° NW 03:06:43 53° NW 03:10:07 10° N
Timation 2 Rocket 4.3 03:00:39 10° NNW 03:06:41 63° ENE 03:12:36 10° SE
USA 238 DEB 4.2 03:04:50 35° W 03:07:11 47° NW 03:13:56 10° NE
Unknown 3.5 03:06:54 71° SSW 03:07:14 78° SSE 03:11:23 10° ENE
USA 238 4.2 03:04:55 35° W 03:07:17 48° NW 03:14:03 10° NE
Cosmos 2344 3.7 03:04:08 37° WSW 03:07:21 67° NW 03:15:49 10° NE
Cosmos 2026 Rocket 4.3 03:02:24 10° S 03:08:36 67° E 03:14:56 10° NNE
Unknown 3.5 03:08:29 70° SSW 03:08:52 79° SSE 03:13:02 10° ENE
ADEOS 4.0 03:03:59 10° NNE 03:09:10 60° ESE 03:13:37 14° S
Cosmos 1943 Rocket 2.2 03:08:01 46° WSW 03:09:18 58° WNW 03:14:49 10° NNE
CZ-2D R/B 4.0 03:05:57 10° N 03:09:14 41° NW 03:09:14 41° NW
Cosmos 1862 Rocket 4.5 03:06:41 13° SSE 03:10:27 49° E 03:14:48 10° NNE
Unknown 3.5 03:10:05 69° SW 03:10:32 81° SSE 03:14:42 10° ENE
CZ-2D R/B 3.9 03:08:42 10° NNW 03:11:29 15° NW 03:11:29 15° NW
ARIANE 5 R/B 3.1 03:07:21 10° N 03:12:01 36° WNW 03:12:21 36° WNW
Unknown 3.5 03:11:42 67° SW 03:12:13 83° SSE 03:16:23 10° ENE
SeaSat 1 3.3 03:08:46 10° NE 03:13:32 47° ESE 03:17:15 16° S
BREEZE-M DEB (TANK) 4.1 03:00:58 10° WNW 03:13:49 75° N 03:17:34 10° E
Lacrosse 5 rocket 1.8 03:15:00 44° SSW 03:15:00 44° SSW 03:18:32 10° SSE
Unknown 3.5 03:14:55 63° SW 03:15:34 87° SSE 03:19:43 10° ENE
H-2A R/B 3.4 03:12:57 10° NNE 03:16:37 41° E 03:19:58 12° S
Unknown 3.5 03:16:34 61° WSW 03:17:15 89° SSE 03:21:24 10° ENE
Unknown 4.0 03:17:24 41° NW 03:17:54 44° NNW 03:21:31 10° NE
Cosmos 1400 Rocket 2.6 03:17:04 45° S 03:18:12 88° E 03:22:06 10° NNE
Unknown 3.5 03:18:06 58° WSW 03:18:52 89° WNW 03:23:03 10° ENE
Unknown 3.5 03:19:39 56° WSW 03:20:29 89° NNW 03:24:39 10° ENE
Cosmos 2084 Rocket 4.1 03:16:27 10° NW 03:20:49 57° NE 03:25:06 10° SE
Cosmos 44 3.3 03:18:58 34° SSW 03:21:10 78° SE 03:25:58 10° NE
Unknown 4.5 03:20:42 28° NW 03:21:26 31° N 03:24:38 10° NE
ATLAS 5 CENTAUR R/B 4.1 03:19:27 10° NW 03:21:59 14° N 03:24:40 10° NNE
Unknown 3.5 03:21:32 53° WSW 03:22:28 85° NNW 03:26:38 10° ENE
Unknown 3.5 03:22:44 52° WSW 03:23:42 89° NNW 03:27:52 10° ENE
ATLAS 5 CENTAUR R/B 3.0 03:23:24 22° NNW 03:23:44 22° NNW 03:27:08 10° NE
Unknown 3.5 03:25:53 48° WSW 03:26:59 85° NNW 03:31:09 10° ENE
Unknown 3.6 03:26:35 46° W 03:27:37 69° NNW 03:31:40 10° ENE
Cosmos 2195 Rocket 4.4 03:22:29 14° SSW 03:28:03 78° W 03:34:21 10° N
Unknown 3.5 03:27:30 46° WSW 03:28:40 83° NNW 03:32:50 10° ENE
Unknown 3.6 03:29:16 44° WSW 03:30:30 77° NNW 03:34:39 10° ENE
Unknown 3.5 03:30:41 43° WSW 03:32:00 80° NNW 03:36:10 10° ENE
Cosmos 2263 4.3 03:29:57 31° SW 03:32:35 59° WNW 03:38:09 10° NNE
Cosmos 1125 Rocket 4.3 03:28:51 10° NW 03:32:56 29° W 03:32:56 29° W
Unknown 3.6 03:32:17 41° WSW 03:33:39 78° NNW 03:37:48 10° ENE
Unknown 3.6 03:33:02 40° W 03:34:23 72° NNW 03:38:29 10° ENE
Unknown 3.6 03:35:29 38° WSW 03:36:59 75° NNW 03:41:09 10° ENE
Unknown 3.6 03:37:05 36° WSW 03:38:40 74° NNW 03:42:49 10° ENE
USA 215 4.0 03:33:04 10° ENE 03:39:21 46° SE 03:45:35 10° SSW
Meteor 1-5 Rocket 4.1 03:33:56 10° NNW 03:39:23 79° W 03:44:58 10° S
Cosmos 1908 Rocket 4.3 03:35:06 10° N 03:39:23 55° ENE 03:43:38 10° SSE
SL-24 DEB 4.4 03:36:32 20° SSW 03:39:34 48° W 03:44:09 10° NNW
Unknown 3.6 03:38:41 35° WSW 03:40:20 72° NNW 03:44:29 10° ENE
Cosmos 1707 Rocket 4.2 03:39:26 31° WSW 03:40:29 36° WNW 03:44:34 10° N
Cosmos 1536 3.3 03:36:50 10° N 03:40:48 62° E 03:44:44 10° SSE
Unknown 3.6 03:40:14 34° WSW 03:41:57 71° NNW 03:46:06 10° ENE
Cosmos 1340 3.0 03:38:37 10° N 03:42:24 65° ENE 03:46:09 10° SSE
Cosmos 1428 Rocket 4.4 03:37:23 10° SSW 03:43:42 80° W 03:50:01 10° N
CZ-2C R/B 4.0 03:40:41 10° N 03:43:57 25° WNW 03:44:16 25° WNW
Cosmos 1346 Rocket 3.0 03:40:32 10° N 03:44:39 76° ENE 03:48:44 10° SSE
Unknown 3.7 03:43:28 31° W 03:45:20 68° NNW 03:49:28 10° ENE
MSX 4.0 03:40:46 10° NNE 03:46:33 75° ESE 03:52:17 10° S
Unknown 3.8 03:45:22 29° W 03:47:17 61° NNW 03:51:24 10° ENE
PSLV R/B 3.6 03:44:10 10° N 03:48:31 64° WNW 03:52:08 14° SSW
Unknown 3.8 03:46:52 28° W 03:48:52 61° NNW 03:53:00 10° ENE
Unknown 3.8 03:47:07 28° W 03:49:08 63° NNW 03:53:15 10° ENE
Cosmos 1733 Rocket 3.3 03:45:01 10° NNW 03:49:18 47° W 03:53:34 10° SSW
IDEFIX/ARIANE 42P 2.5 03:45:15 10° N 03:50:30 70° WNW 03:55:44 10° SSW
Unknown 3.8 03:49:52 27° W 03:51:59 62° NNW 03:56:06 10° ENE
PSLV R/B 4.2 03:48:05 10° S 03:52:03 43° W 03:56:00 10° NNW
Cosmos 1092 Rocket 4.4 03:50:12 17° SW 03:54:32 41° WNW 04:00:21 10° N
NOSS 3-2 (C) 4.2 03:51:16 20° W 03:55:01 41° NW 04:01:27 10° NNE
Unknown 3.8 03:53:03 25° W 03:55:19 60° NNW 03:59:26 10° ENE
CZ-4B R/B 4.0 03:51:05 10° NNE 03:55:31 52° E 03:59:54 10° S
ATLAS 3B R/B 3.0 03:52:06 20° WSW 03:56:32 50° NW 04:02:58 10° NNE
Unknown 3.9 03:54:39 24° W 03:56:59 59° NNW 04:01:06 10° ENE
Unknown 3.9 03:56:15 23° W 03:58:39 58° NNW 04:02:46 10° ENE
Cosmos 2227 Rocket 4.2 03:54:35 10° NNW 03:59:37 31° NE 04:04:37 10° ESE
USA 81 4.1 03:55:01 10° SSW 04:00:13 58° W 04:05:26 10° N
Unknown 3.9 03:57:51 22° W 04:00:19 57° NNW 04:04:26 10° ENE
Cosmos 2219 4.3 03:55:01 10° NNW 04:00:33 47° NE 04:06:00 10° SE
Cosmos 773 Rocket 3.9 03:56:10 10° SSW 04:01:21 88° WNW 04:06:32 10° NNE
ADEOS II 3.8 03:59:30 10° NNW 04:02:36 16° WNW 04:04:19 14° WNW
Cosmos 1656 Rocket 3.9 04:02:08 14° SW 04:06:50 53° WNW 04:12:22 10° NNE
Unknown 4.0 04:04:13 19° W 04:06:59 53° NNW 04:11:04 10° ENE
Cosmos 2369 Rocket 3.3 04:03:58 17° W 04:07:13 27° NW 04:12:03 10° N
Unknown 4.0 04:05:47 19° W 04:08:36 52° NNW 04:12:40 10° ENE
Unknown 4.1 04:07:25 18° W 04:10:19 51° NNW 04:14:24 10° ENE
Cosmos 2297 Rocket 3.8 04:05:21 10° NNW 04:10:37 38° NE 04:15:50 10° ESE
Iridium 4 Rocket 4.0 04:08:29 14° SW 04:11:36 27° W 04:15:17 10° NNW
Unknown 4.1 04:09:00 17° W 04:11:59 51° NNW 04:16:02 10° ENE
Aureole 2 Rocket 1.8 04:11:03 15° SW 04:13:03 56° WNW 04:15:41 10° NNE
Unknown 4.1 04:10:38 17° W 04:13:40 50° NNW 04:17:43 10° ENE
USA 267 3.7 04:08:15 10° ESE 04:14:43 64° NNE 04:21:11 10° NW
Cosmos 2266 Rocket 4.3 04:09:26 10° S 04:15:30 72° E 04:21:32 10° NNE
Cosmos 1500 3.7 04:13:34 10° NNW 04:17:00 34° W 04:20:25 10° SSW
Unknown 4.2 04:13:49 15° W 04:17:00 48° NNW 04:21:03 10° ENE
OPS 6432 4.3 04:14:57 11° SW 04:18:30 80° NW 04:21:33 10° NE
Starlink (trailer) 4.2 04:15:21 15° W 04:18:36 48° NNW 04:22:39 10° ENE
Atlas Centaur 2 4.4 04:15:32 10° SW 04:19:43 17° SSW 04:24:18 10° SSE
Unknown 4.2 04:17:02 14° W 04:20:22 47° NNW 04:24:24 10° ENE
Unknown 4.2 04:18:35 14° W 04:22:00 46° NNW 04:26:01 10° ENE
Cosmos 1782 Rocket 3.6 04:17:43 10° N 04:22:07 88° E 04:26:31 10° S
CZ-4B R/B 3.6 04:18:33 10° NNE 04:22:15 85° WNW 04:25:54 10° SSW
Meteor 1-27 Rocket 4.0 04:17:32 10° SSW 04:23:16 53° WNW 04:28:56 10° N
SKYMED 2 4.4 04:19:23 10° SSE 04:23:37 56° ENE 04:27:53 10° N
ATLAS CENTAUR R/B 3.7 04:20:44 10° NNW 04:24:33 25° NE 04:28:07 10° E
SL-4 R/B 2.6 04:22:12 13° W 04:24:53 30° SW 04:28:07 10° SSE
Unknown 4.3 04:24:58 12° W 04:28:40 44° NNW 04:32:39 10° ENE
Unknown 4.3 04:26:38 11° W 04:30:24 43° NNW 04:34:24 10° ENE
Unknown 4.4 04:27:10 11° W 04:30:59 43° NNW 04:34:57 10° ENE
Unknown 3.6 04:28:19 10° NW 04:31:06 45° NNE 04:33:52 10° E
Sich 1 Rocket 3.6 04:29:02 10° N 04:33:30 87° W 04:37:59 10° S
Unknown 4.4 04:29:47 10° W 04:33:43 42° NNW 04:37:41 10° ENE
Cosmos 1538 Rocket 4.1 04:28:50 10° SW 04:33:56 60° WNW 04:39:04 10° NNE
Unknown 4.4 04:31:34 10° W 04:35:31 41° NNW 04:39:28 10° ENE
Meteor 1-11 Rocket 4.4 04:31:08 10° NNW 04:35:59 31° W 04:40:45 10° SSW
Cosmos 1703 Rocket 3.6 04:31:39 10° SSW 04:36:03 58° WNW 04:40:24 10° N
Unknown 4.4 04:32:34 10° W 04:36:31 42° NNW 04:40:29 10° ENE
Cosmos 1315 Rocket 3.7 04:32:49 10° SW 04:36:33 32° WNW 04:40:19 10° N
Cosmos 1553 Rocket 4.4 04:31:33 10° NNW 04:37:18 39° W 04:42:56 10° SSW
Cosmos 44 Rocket 3.4 04:32:55 10° SW 04:37:58 88° NW 04:42:55 10° NE
CZ-2C R/B 2.5 04:33:39 10° N 04:38:25 57° WNW 04:43:21 10° SSW
CENTAUR R/B 3.5 04:32:51 10° W 04:38:39 36° NNW 04:45:22 10° NE
Unknown 4.5 04:34:55 10° W 04:38:51 40° NNW 04:42:48 10° ENE
Cosmos 2221 Rocket 4.3 04:35:08 10° S 04:39:27 59° E 04:43:49 10° NNE
Cosmos 2242 Rocket 4.4 04:35:33 10° SW 04:39:35 31° WNW 04:43:37 10° N
EP 1 4.4 04:37:14 10° SW 04:40:00 55° NW 04:42:33 10° NNE
Unknown 4.5 04:36:28 10° W 04:40:24 41° NNW 04:44:21 10° ENE
Cosmos 1812 3.9 04:37:29 10° SW 04:40:37 23° WNW 04:43:44 10° NNW
Unknown 4.5 04:37:07 10° W 04:41:03 40° NNW 04:45:00 10° ENE
Cosmos 1743 2.9 04:38:02 10° N 04:41:58 80° E 04:45:52 10° SSE
Cosmos 2315 Rocket 4.1 04:36:53 10° N 04:43:08 88° E 04:49:21 10° S
Unknown 4.5 04:39:42 10° W 04:43:38 40° NNW 04:47:34 10° ENE
Cosmos 2292 Rocket 4.0 04:41:10 10° S 04:46:27 75° E 04:50:26 10° NNE
Lacrosse 5 2.0 04:42:13 10° WNW 04:47:11 57° SW 04:52:08 10° SSE
